Sarasota, FL

4:35 AM EDT on April 25, 2017 (GMT -0400)
Sarasota-bradenton

Weather History for KSRQ - November, 2013

Change the Weather History Date:

Friday, November 8, 2013

  Actual Average Record
Temperature  
Mean Temperature 74 °F 71 °F  
Max Temperature 82 °F 80 °F 90 °F (1987)
Min Temperature 66 °F 61 °F 44 °F (1934)
Degree Days  
Heating Degree Days 0 0  
Month to date heating degree days 0 0  
Since 1 July heating degree days 0 3  
Cooling Degree Days 9 6  
Month to date cooling degree days 75 55  
Year to date cooling degree days 3463 3199  
Growing Degree Days 24 (Base 50)    
Moisture  
Dew Point 64 °F    
Average Humidity 76    
Maximum Humidity 97    
Minimum Humidity 54    
Precipitation  
Precipitation 0.00 in 0.06 in 1.34 in (1983)
Month to date precipitation 0.24 0.63  
Year to date precipitation 51.35 49.18  
Sea Level Pressure  
Sea Level Pressure 30.04 in    
Wind  
Wind Speed 9 mph (NE)    
Max Wind Speed 17 mph    
Max Gust Speed 24 mph    
Visibility 10 miles    
Events      
T = Trace of Precipitation, MM = Missing Value Source: NWS Daily Summary

Daily Weather History Graph

Daily Weather History Graph

Search for Another Location

Airport or City:

Trip Planner

Search our weather history database for the weather conditions in past years. The results will help you decide how hot, cold, wet, or windy it might be!

Date:

Astronomy

Nov. 08, 2013 Rise Set
Actual Time 6:45 AM EST 5:41 PM EST
Civil Twilight 6:21 AM EST 6:06 PM EST
Nautical Twilight 5:53 AM EST 6:34 PM EST
Astronomical Twilight 5:25 AM EST 7:01 PM EST
Moon 11:40 AM EST (11/8) 10:59 PM EST (11/8)
Length of Visible Light 11h 44m
Length of Day
10h 56m
Waxing Crescent, 33% of the Moon is Illuminated
Nov 8
Waxing Crescent
Nov 10
First Quarter
Nov 17
Full
Nov 25
Last Quarter
Dec 2
New

Hourly Weather History & Observations

Time (EST) Temp. Heat Index Dew Point Humidity Pressure Visibility Wind Dir Wind Speed Gust Speed Precip Events Conditions
12:53 AM 70.0 °F - 66.0 °F 87% 30.00 in 10.0 mi North 4.6 mph - N/A   Clear
1:53 AM 70.0 °F - 66.9 °F 90% 30.00 in 10.0 mi North 4.6 mph - N/A   Clear
2:53 AM 70.0 °F - 66.9 °F 90% 30.00 in 10.0 mi North 5.8 mph - N/A   Clear
3:53 AM 70.0 °F - 68.0 °F 93% 30.00 in 10.0 mi NE 3.5 mph - N/A   Clear
4:53 AM 69.1 °F - 66.9 °F 93% 30.01 in 10.0 mi NE 5.8 mph - N/A   Clear
5:53 AM 68.0 °F - 64.9 °F 90% 30.02 in 10.0 mi NNE 10.4 mph - N/A   Clear
6:53 AM 66.9 °F - 64.9 °F 93% 30.04 in 10.0 mi NE 6.9 mph - N/A   Clear
7:53 AM 69.1 °F - 64.9 °F 87% 30.05 in 10.0 mi NE 9.2 mph - N/A   Clear
8:53 AM 70.0 °F - 64.9 °F 84% 30.06 in 10.0 mi NNE 9.2 mph 18.4 mph N/A   Mostly Cloudy
9:53 AM 72.0 °F - 64.9 °F 78% 30.08 in 10.0 mi NE 9.2 mph 19.6 mph N/A   Mostly Cloudy
10:35 AM 73.4 °F - 64.4 °F 73% 30.08 in 10.0 mi NE 10.4 mph - N/A   Partly Cloudy
10:53 AM 75.0 °F - 64.9 °F 71% 30.07 in 10.0 mi NNE 11.5 mph - N/A   Clear
11:53 AM 77.0 °F - 64.9 °F 66% 30.06 in 10.0 mi NNE 10.4 mph - N/A   Clear
12:53 PM 81.0 °F 82.7 °F 64.9 °F 58% 30.02 in 10.0 mi NE 10.4 mph - N/A   Clear
1:53 PM 81.0 °F 82.2 °F 63.0 °F 54% 30.01 in 10.0 mi NNE 12.7 mph 17.3 mph N/A   Clear
2:53 PM 80.1 °F 81.2 °F 62.1 °F 54% 30.01 in 10.0 mi NE 11.5 mph 21.9 mph N/A   Partly Cloudy
3:53 PM 78.1 °F - 61.0 °F 56% 30.02 in 10.0 mi NNE 12.7 mph - N/A   Clear
4:53 PM 78.1 °F - 62.1 °F 58% 30.02 in 10.0 mi NE 11.5 mph - N/A   Clear
5:53 PM 75.0 °F - 62.1 °F 64% 30.04 in 10.0 mi NE 8.1 mph - N/A   Clear
6:53 PM 73.0 °F - 63.0 °F 71% 30.06 in 10.0 mi NE 8.1 mph - N/A   Clear
7:53 PM 71.1 °F - 62.1 °F 73% 30.08 in 10.0 mi NE 8.1 mph - N/A   Clear
8:53 PM 70.0 °F - 62.1 °F 76% 30.09 in 10.0 mi NE 9.2 mph - N/A   Clear
9:53 PM 68.0 °F - 61.0 °F 78% 30.10 in 10.0 mi NE 10.4 mph - N/A   Clear
10:53 PM 66.9 °F - 61.0 °F 81% 30.09 in 10.0 mi NE 10.4 mph - N/A   Clear
11:53 PM 66.0 °F - 60.1 °F 81% 30.10 in 10.0 mi NE 6.9 mph - N/A   Clear